| time (UTC) | temp F | wind direction | speed MPH | gust MPH | rain 1hr in | rain 24hr in | rain mn in | humidity % | barometer mb |
| 20260901231905 | 64 | 134 | 5.0 | 8.0 | 0.00 | 0.00 | 0.00 | 86 | 1020.4 |
| 20260901231404 | 64 | 117 | 3.0 | 8.0 | 0.00 | 0.00 | 0.00 | 86 | 1020.3 |
| 20260901230904 | 65 | 132 | 5.0 | 9.0 | 0.00 | 0.00 | 0.00 | 85 | 1020.4 |
| 20260901230404 | 65 | 114 | 5.0 | 12.0 | 0.00 | 0.00 | 0.00 | 85 | 1020.4 |
| 20260901225904 | 65 | 123 | 2.0 | 10.0 | 0.00 | 0.00 | 0.00 | 85 | 1020.4 |
| 20260901225404 | 65 | 131 | 5.0 | 10.0 | 0.00 | 0.00 | 0.00 | 84 | 1020.3 |
| 20260901224404 | 65 | 109 | 1.0 | 8.0 | 0.00 | 0.00 | 0.00 | 84 | 1020.4 |
| 20260901223905 | 65 | 113 | 5.0 | 10.0 | 0.00 | 0.00 | 0.00 | 84 | 1020.4 |
| 20260901222904 | 66 | 128 | 4.0 | 10.0 | 0.00 | 0.00 | 0.00 | 83 | 1020.6 |
| 20260901222405 | 66 | 155 | 3.0 | 7.0 | 0.00 | 0.00 | 0.00 | 83 | 1020.5 |
| 20260901221904 | 66 | 116 | 2.0 | 7.0 | 0.00 | 0.00 | 0.00 | 82 | 1020.4 |
| 20260901221405 | 66 | 131 | 3.0 | 9.0 | 0.00 | 0.00 | 0.00 | 82 | 1020.4 |
| 20260901220905 | 66 | 137 | 4.0 | 9.0 | 0.00 | 0.00 | 0.00 | 82 | 1020.4 |
| 20260901220404 | 66 | 116 | 6.0 | 9.0 | 0.00 | 0.00 | 0.00 | 81 | 1020.5 |
| 20260901215404 | 66 | 130 | 4.0 | 10.0 | 0.00 | 0.00 | 0.00 | 81 | 1020.4 |
| 20260901214904 | 66 | 124 | 1.0 | 10.0 | 0.00 | 0.00 | 0.00 | 80 | 1020.5 |
| 20260901214404 | 67 | 117 | 3.0 | 9.0 | 0.00 | 0.00 | 0.00 | 80 | 1020.6 |
| 20260901213904 | 67 | 114 | 1.0 | 7.0 | 0.00 | 0.00 | 0.00 | 79 | 1020.4 |
| 20260901213404 | 67 | 138 | 3.0 | 10.0 | 0.00 | 0.00 | 0.00 | 79 | 1020.5 |
| 20260901212905 | 67 | 30 | 3.0 | 9.0 | 0.00 | 0.00 | 0.00 | 79 | 1020.6 |
| 20260901212405 | 67 | 138 | 1.0 | 6.0 | 0.00 | 0.00 | 0.00 | 78 | 1020.5 |
| 20260901211905 | 67 | 113 | 1.0 | 7.0 | 0.00 | 0.00 | 0.00 | 78 | 1020.5 |
| 20260901211405 | 67 | 108 | 2.0 | 10.0 | 0.00 | 0.00 | 0.00 | 77 | 1020.4 |
| 20260901210907 | 68 | 162 | 3.0 | 10.0 | 0.00 | 0.00 | 0.00 | 76 | 1020.3 |
| 20260901210405 | 68 | 167 | 2.0 | 9.0 | 0.00 | 0.00 | 0.00 | 76 | 1020.3 |
| 20260901205905 | 68 | 122 | 1.0 | 7.0 | 0.00 | 0.00 | 0.00 | 75 | 1020.2 |
| 20260901205404 | 68 | 155 | 2.0 | 9.0 | 0.00 | 0.00 | 0.00 | 74 | 1020.1 |
| 20260901204904 | 68 | 104 | 3.0 | 9.0 | 0.00 | 0.00 | 0.00 | 74 | 1020.1 |
| 20260901204404 | 69 | 135 | 1.0 | 8.0 | 0.00 | 0.00 | 0.00 | 73 | 1020.1 |
| 20260901203905 | 69 | 167 | 2.0 | 12.0 | 0.00 | 0.00 | 0.00 | 73 | 1020.0 |
| 20260901203404 | 69 | 137 | 2.0 | 12.0 | 0.00 | 0.00 | 0.00 | 72 | 1020.0 |
| 20260901202905 | 69 | 134 | 1.0 | 10.0 | 0.00 | 0.00 | 0.00 | 71 | 1020.0 |
| 20260901202405 | 69 | 128 | 5.0 | 10.0 | 0.00 | 0.00 | 0.00 | 71 | 1020.0 |
| 20260901201904 | 70 | 143 | 2.0 | 9.0 | 0.00 | 0.00 | 0.00 | 70 | 1020.0 |
| 20260901200404 | 70 | 167 | 2.0 | 9.0 | 0.00 | 0.00 | 0.00 | 68 | 1019.8 |
| 20260901195404 | 70 | 97 | 2.0 | 8.0 | 0.00 | 0.00 | 0.00 | 67 | 1019.6 |
| 20260901194904 | 71 | 62 | 1.0 | 6.0 | 0.00 | 0.00 | 0.00 | 67 | 1019.5 |
| 20260901194404 | 71 | 133 | 1.0 | 7.0 | 0.00 | 0.00 | 0.00 | 67 | 1019.4 |
| 20260901193904 | 71 | 86 | 2.0 | 8.0 | 0.00 | 0.00 | 0.00 | 66 | 1019.4 |
| 20260901193404 | 71 | 101 | 1.0 | 12.0 | 0.00 | 0.00 | 0.00 | 66 | 1019.4 |
| 20260901192906 | 72 | 65 | 3.0 | 10.0 | 0.00 | 0.00 | 0.00 | 66 | 1019.4 |
| 20260901192405 | 72 | 170 | 1.0 | 12.0 | 0.00 | 0.00 | 0.00 | 65 | 1019.4 |
| 20260901191905 | 72 | 126 | 3.0 | 12.0 | 0.00 | 0.00 | 0.00 | 64 | 1019.4 |
| 20260901191405 | 72 | 109 | 1.0 | 7.0 | 0.00 | 0.00 | 0.00 | 64 | 1019.4 |
| 20260901190905 | 73 | 115 | 2.0 | 10.0 | 0.00 | 0.00 | 0.00 | 64 | 1019.3 |
| 20260901190405 | 73 | 79 | 0.0 | 7.0 | 0.00 | 0.00 | 0.00 | 63 | 1019.4 |
| 20260901185906 | 73 | 111 | 3.0 | 13.0 | 0.00 | 0.00 | 0.00 | 62 | 1019.3 |
| 20260901185405 | 74 | 147 | 1.0 | 7.0 | 0.00 | 0.00 | 0.00 | 63 | 1019.3 |
| 20260901184406 | 74 | 121 | 1.0 | 12.0 | 0.00 | 0.00 | 0.00 | 61 | 1019.1 |
| 20260901183905 | 75 | 153 | 0.0 | 13.0 | 0.00 | 0.00 | 0.00 | 61 | 1019.1 |
| 20260901183405 | 75 | 105 | 1.0 | 9.0 | 0.00 | 0.00 | 0.00 | 61 | 1019.0 |
| 20260901182905 | 75 | 126 | 2.0 | 10.0 | 0.00 | 0.00 | 0.00 | 60 | 1019.0 |
| 20260901182405 | 76 | 119 | 1.0 | 10.0 | 0.00 | 0.00 | 0.00 | 59 | 1019.0 |
| 20260901181905 | 76 | 113 | 3.0 | 10.0 | 0.00 | 0.00 | 0.00 | 58 | 1019.0 |
| 20260901181405 | 77 | 51 | 1.0 | 9.0 | 0.00 | 0.00 | 0.00 | 59 | 1018.8 |
| 20260901180905 | 77 | 98 | 3.0 | 13.0 | 0.00 | 0.00 | 0.00 | 59 | 1018.9 |
| 20260901180405 | 77 | 108 | 2.0 | 10.0 | 0.00 | 0.00 | 0.00 | 59 | 1018.9 |
| 20260901175405 | 78 | 93 | 3.0 | 12.0 | 0.00 | 0.00 | 0.00 | 59 | 1018.8 |
| 20260901174905 | 78 | 88 | 3.0 | 12.0 | 0.00 | 0.00 | 0.00 | 58 | 1018.7 |
| 20260901173905 | 79 | 170 | 1.0 | 20.0 | 0.00 | 0.00 | 0.00 | 58 | 1018.7 |
| 20260901173406 | 79 | 117 | 5.0 | 15.0 | 0.00 | 0.00 | 0.00 | 57 | 1018.7 |
| 20260901172905 | 79 | 152 | 4.0 | 15.0 | 0.00 | 0.00 | 0.00 | 56 | 1018.7 |
| 20260901172406 | 80 | 113 | 3.0 | 10.0 | 0.00 | 0.00 | 0.00 | 55 | 1018.7 |
| 20260901171908 | 80 | 158 | 1.0 | 12.0 | 0.00 | 0.00 | 0.00 | 55 | 1018.7 |
| 20260901170906 | 81 | 81 | 3.0 | 15.0 | 0.00 | 0.00 | 0.00 | 54 | 1018.5 |
| 20260901170405 | 81 | 119 | 2.0 | 15.0 | 0.00 | 0.00 | 0.00 | 54 | 1018.5 |
| 20260901165905 | 82 | 115 | 3.0 | 12.0 | 0.00 | 0.00 | 0.00 | 53 | 1018.4 |
| 20260901165405 | 83 | 92 | 3.0 | 20.0 | 0.00 | 0.00 | 0.00 | 52 | 1018.3 |
| 20260901163406 | 84 | 146 | 3.0 | 16.0 | 0.00 | 0.00 | 0.00 | 51 | 1018.2 |
| 20260901162905 | 84 | 104 | 3.0 | 12.0 | 0.00 | 0.00 | 0.00 | 50 | 1018.1 |
| 20260901162405 | 84 | 83 | 2.0 | 8.0 | 0.00 | 0.00 | 0.00 | 50 | 1018.1 |
| 20260901161905 | 84 | 85 | 2.0 | 8.0 | 0.00 | 0.00 | 0.00 | 49 | 1018.1 |
| 20260901161406 | 85 | 122 | 2.0 | 9.0 | 0.00 | 0.00 | 0.00 | 49 | 1018.1 |
| 20260901160905 | 84 | 107 | 1.0 | 10.0 | 0.00 | 0.00 | 0.00 | 49 | 1018.2 |
| 20260901155905 | 84 | 137 | 1.0 | 8.0 | 0.00 | 0.00 | 0.00 | 49 | 1018.1 |
| 20260901155405 | 84 | 158 | 3.0 | 12.0 | 0.00 | 0.00 | 0.00 | 49 | 1018.1 |
| 20260901154905 | 85 | 128 | 2.0 | 14.0 | 0.00 | 0.00 | 0.00 | 49 | 1018.1 |
| 20260901153905 | 85 | 164 | 1.0 | 14.0 | 0.00 | 0.00 | 0.00 | 49 | 1018.0 |
| 20260901153405 | 85 | 136 | 2.0 | 9.0 | 0.00 | 0.00 | 0.00 | 49 | 1018.1 |
| 20260901152905 | 85 | 129 | 3.0 | 10.0 | 0.00 | 0.00 | 0.00 | 49 | 1018.2 |
| 20260901152405 | 85 | 95 | 3.0 | 12.0 | 0.00 | 0.00 | 0.00 | 49 | 1018.1 |
| 20260901151905 | 85 | 118 | 2.0 | 8.0 | 0.00 | 0.00 | 0.00 | 49 | 1018.2 |
| 20260901151405 | 85 | 94 | 3.0 | 12.0 | 0.00 | 0.00 | 0.00 | 49 | 1018.1 |
| 20260901150906 | 85 | 99 | 2.0 | 9.0 | 0.00 | 0.00 | 0.00 | 49 | 1018.2 |
| 20260901150405 | 86 | 125 | 3.0 | 10.0 | 0.00 | 0.00 | 0.00 | 49 | 1018.2 |
| 20260901145905 | 85 | 98 | 1.0 | 10.0 | 0.00 | 0.00 | 0.00 | 49 | 1018.1 |
| 20260901145405 | 85 | 127 | 2.0 | 10.0 | 0.00 | 0.00 | 0.00 | 49 | 1018.2 |
| 20260901144905 | 85 | 113 | 1.0 | 8.0 | 0.00 | 0.00 | 0.00 | 49 | 1018.1 |
| 20260901144405 | 85 | 77 | 0.0 | 7.0 | 0.00 | 0.00 | 0.00 | 49 | 1018.2 |
| 20260901143905 | 85 | 112 | 0.0 | 8.0 | 0.00 | 0.00 | 0.00 | 49 | 1018.2 |
| 20260901143405 | 84 | 78 | 0.0 | 7.0 | 0.00 | 0.00 | 0.00 | 50 | 1018.2 |
| 20260901142905 | 85 | 135 | 2.0 | 9.0 | 0.00 | 0.00 | 0.00 | 49 | 1018.3 |
| 20260901142405 | 84 | 136 | 3.0 | 9.0 | 0.00 | 0.00 | 0.00 | 49 | 1018.4 |
| 20260901141905 | 84 | 70 | 0.0 | 12.0 | 0.00 | 0.00 | 0.00 | 50 | 1018.4 |
| 20260901141405 | 84 | 145 | 2.0 | 10.0 | 0.00 | 0.00 | 0.00 | 49 | 1018.5 |
| 20260901140405 | 85 | 142 | 5.0 | 12.0 | 0.00 | 0.00 | 0.00 | 48 | 1018.6 |
| 20260901135905 | 84 | 106 | 0.0 | 3.0 | 0.00 | 0.00 | 0.00 | 50 | 1018.6 |
| 20260901135406 | 84 | 67 | 1.0 | 12.0 | 0.00 | 0.00 | 0.00 | 51 | 1018.7 |
| 20260901134905 | 84 | 115 | 3.0 | 10.0 | 0.00 | 0.00 | 0.00 | 50 | 1018.8 |
| 20260901133405 | 83 | 144 | 0.0 | 7.0 | 0.00 | 0.00 | 0.00 | 51 | 1018.9 |
| 20260901132905 | 83 | 63 | 3.0 | 13.0 | 0.00 | 0.00 | 0.00 | 51 | 1018.9 |
| 20260901132405 | 83 | 125 | 2.0 | 12.0 | 0.00 | 0.00 | 0.00 | 51 | 1019.0 |
| 20260901131905 | 84 | 99 | 1.0 | 10.0 | 0.00 | 0.00 | 0.00 | 50 | 1019.0 |
| 20260901131405 | 84 | 84 | 2.0 | 10.0 | 0.00 | 0.00 | 0.00 | 51 | 1019.0 |
| 20260901130906 | 83 | 87 | 2.0 | 10.0 | 0.00 | 0.00 | 0.00 | 51 | 1018.9 |
| 20260901130405 | 83 | 97 | 2.0 | 10.0 | 0.00 | 0.00 | 0.00 | 51 | 1019.0 |
| 20260901125405 | 83 | 178 | 1.0 | 7.0 | 0.00 | 0.00 | 0.00 | 53 | 1019.0 |
| 20260901124905 | 83 | 43 | 0.0 | 3.0 | 0.00 | 0.00 | 0.00 | 53 | 1019.1 |
| 20260901124405 | 82 | 42 | 0.0 | 10.0 | 0.00 | 0.00 | 0.00 | 53 | 1019.1 |
| 20260901123905 | 82 | 95 | 2.0 | 10.0 | 0.00 | 0.00 | 0.00 | 54 | 1019.2 |
| 20260901123405 | 81 | 135 | 1.0 | 12.0 | 0.00 | 0.00 | 0.00 | 55 | 1019.1 |
| 20260901122905 | 80 | 127 | 1.0 | 12.0 | 0.00 | 0.00 | 0.00 | 57 | 1019.2 |
| 20260901122405 | 80 | 169 | 4.0 | 9.0 | 0.00 | 0.00 | 0.00 | 57 | 1019.3 |
| 20260901121905 | 80 | 114 | 5.0 | 12.0 | 0.00 | 0.00 | 0.00 | 57 | 1019.3 |
| 20260901121406 | 79 | 131 | 3.0 | 8.0 | 0.00 | 0.00 | 0.00 | 58 | 1019.3 |
| 20260901120905 | 79 | 145 | 6.0 | 16.0 | 0.00 | 0.00 | 0.00 | 57 | 1019.3 |
| 20260901120405 | 80 | 53 | 1.0 | 12.0 | 0.00 | 0.00 | 0.00 | 58 | 1019.3 |
| 20260901115905 | 79 | 100 | 2.0 | 12.0 | 0.00 | 0.00 | 0.00 | 59 | 1019.4 |
| 20260901115405 | 80 | 143 | 1.0 | 10.0 | 0.00 | 0.00 | 0.00 | 58 | 1019.5 |
| 20260901114905 | 80 | 109 | 2.0 | 10.0 | 0.00 | 0.00 | 0.00 | 59 | 1019.4 |
| 20260901114405 | 79 | 191 | 2.0 | 9.0 | 0.00 | 0.00 | 0.00 | 59 | 1019.5 |
| 20260901113905 | 78 | 32 | 0.0 | 9.0 | 0.00 | 0.00 | 0.00 | 60 | 1019.6 |
| 20260901113405 | 77 | 103 | 1.0 | 10.0 | 0.00 | 0.00 | 0.00 | 62 | 1019.7 |
| 20260901112905 | 77 | 41 | 1.0 | 8.0 | 0.00 | 0.00 | 0.00 | 62 | 1019.8 |
| 20260901112405 | 77 | 112 | 1.0 | 12.0 | 0.00 | 0.00 | 0.00 | 63 | 1019.9 |
| 20260901111905 | 77 | 121 | 4.0 | 12.0 | 0.00 | 0.00 | 0.00 | 63 | 1019.9 |
| 20260901111405 | 77 | 158 | 2.0 | 10.0 | 0.00 | 0.00 | 0.00 | 62 | 1019.9 |
| 20260901110905 | 77 | 93 | 4.0 | 12.0 | 0.00 | 0.00 | 0.00 | 64 | 1020.0 |
| 20260901110405 | 77 | 124 | 3.0 | 10.0 | 0.00 | 0.00 | 0.00 | 63 | 1020.0 |
| 20260901105905 | 77 | 86 | 2.0 | 12.0 | 0.00 | 0.00 | 0.00 | 64 | 1020.0 |
| 20260901105405 | 75 | 118 | 6.0 | 10.0 | 0.00 | 0.00 | 0.00 | 65 | 1020.0 |
| 20260901104905 | 75 | 128 | 6.0 | 18.0 | 0.00 | 0.00 | 0.00 | 66 | 1020.0 |
| 20260901104405 | 75 | 115 | 2.0 | 12.0 | 0.00 | 0.00 | 0.00 | 66 | 1020.1 |
| 20260901103905 | 75 | 77 | 2.0 | 12.0 | 0.00 | 0.00 | 0.00 | 68 | 1020.1 |
| 20260901103405 | 74 | 94 | 3.0 | 12.0 | 0.00 | 0.00 | 0.00 | 67 | 1020.1 |
| 20260901102905 | 74 | 128 | 1.0 | 8.0 | 0.00 | 0.00 | 0.00 | 68 | 1020.1 |
| 20260901101405 | 74 | 129 | 2.0 | 8.0 | 0.00 | 0.00 | 0.00 | 69 | 1020.2 |
| 20260901100905 | 73 | 131 | 2.0 | 8.0 | 0.00 | 0.00 | 0.00 | 70 | 1020.2 |
| 20260901095905 | 72 | 93 | 1.0 | 9.0 | 0.00 | 0.00 | 0.00 | 74 | 1020.1 |
| 20260901095404 | 71 | 120 | 4.0 | 15.0 | 0.00 | 0.00 | 0.00 | 73 | 1020.1 |
| 20260901094905 | 70 | 127 | 2.0 | 12.0 | 0.00 | 0.00 | 0.00 | 76 | 1020.0 |
| 20260901094405 | 69 | 106 | 1.0 | 9.0 | 0.00 | 0.00 | 0.00 | 78 | 1020.0 |
| 20260901093905 | 69 | 85 | 1.0 | 8.0 | 0.00 | 0.00 | 0.00 | 77 | 1019.9 |
| 20260901092904 | 69 | 127 | 2.0 | 12.0 | 0.00 | 0.00 | 0.00 | 77 | 1019.9 |
| 20260901092405 | 69 | 141 | 1.0 | 8.0 | 0.00 | 0.00 | 0.00 | 77 | 1019.9 |
| 20260901091905 | 69 | 133 | 2.0 | 12.0 | 0.00 | 0.00 | 0.00 | 76 | 1019.9 |
| 20260901091405 | 70 | 121 | 3.0 | 12.0 | 0.00 | 0.00 | 0.00 | 75 | 1019.8 |
| 20260901090405 | 71 | 104 | 2.0 | 10.0 | 0.00 | 0.00 | 0.00 | 74 | 1019.8 |
| 20260901085905 | 71 | 106 | 2.0 | 9.0 | 0.00 | 0.00 | 0.00 | 74 | 1019.7 |
| 20260901085404 | 71 | 81 | 1.0 | 6.0 | 0.00 | 0.00 | 0.00 | 73 | 1019.8 |
| 20260901084905 | 71 | 85 | 1.0 | 7.0 | 0.00 | 0.00 | 0.00 | 73 | 1019.8 |
| 20260901084405 | 71 | 142 | 5.0 | 10.0 | 0.00 | 0.00 | 0.00 | 73 | 1019.8 |
| 20260901083405 | 70 | 135 | 3.0 | 12.0 | 0.00 | 0.00 | 0.00 | 76 | 1019.7 |
| 20260901082405 | 69 | 349 | 1.0 | 13.0 | 0.00 | 0.00 | 0.00 | 77 | 1019.6 |
| 20260901081905 | 69 | 145 | 1.0 | 9.0 | 0.00 | 0.00 | 0.00 | 78 | 1019.7 |
| 20260901080905 | 68 | 119 | 3.0 | 9.0 | 0.00 | 0.00 | 0.00 | 79 | 1019.7 |
| 20260901080405 | 68 | 158 | 2.0 | 10.0 | 0.00 | 0.00 | 0.00 | 79 | 1019.7 |
| 20260901075904 | 68 | 77 | 0.0 | 6.0 | 0.00 | 0.00 | 0.00 | 81 | 1019.7 |
| 20260901075405 | 67 | 121 | 1.0 | 12.0 | 0.00 | 0.00 | 0.00 | 81 | 1019.6 |
| 20260901074905 | 67 | 111 | 1.0 | 7.0 | 0.00 | 0.00 | 0.00 | 82 | 1019.6 |
| 20260901074405 | 66 | 147 | 1.0 | 8.0 | 0.00 | 0.00 | 0.00 | 83 | 1019.6 |
| 20260901073905 | 66 | 111 | 0.0 | 8.0 | 0.00 | 0.00 | 0.00 | 83 | 1019.4 |
| 20260901073405 | 66 | 126 | 2.0 | 8.0 | 0.00 | 0.00 | 0.00 | 84 | 1019.4 |
| 20260901072905 | 66 | 143 | 2.0 | 8.0 | 0.00 | 0.00 | 0.00 | 84 | 1019.4 |
| 20260901072405 | 65 | 153 | 2.0 | 14.0 | 0.00 | 0.00 | 0.00 | 85 | 1019.3 |
| 20260901071905 | 65 | 73 | 1.0 | 12.0 | 0.00 | 0.00 | 0.00 | 86 | 1019.3 |
| 20260901071405 | 65 | 170 | 2.0 | 10.0 | 0.00 | 0.00 | 0.00 | 87 | 1019.3 |
| 20260901070904 | 65 | 146 | 1.0 | 6.0 | 0.00 | 0.00 | 0.00 | 87 | 1019.3 |
| 20260901070405 | 65 | 92 | 1.0 | 9.0 | 0.00 | 0.00 | 0.00 | 87 | 1019.3 |
| 20260901064905 | 64 | 115 | 2.0 | 9.0 | 0.00 | 0.00 | 0.00 | 88 | 1019.2 |
| 20260901064405 | 64 | 165 | 0.0 | 8.0 | 0.00 | 0.00 | 0.00 | 88 | 1019.1 |
| 20260901063905 | 64 | 82 | 1.0 | 9.0 | 0.00 | 0.00 | 0.00 | 88 | 1019.2 |
| 20260901063405 | 64 | 72 | 3.0 | 9.0 | 0.00 | 0.00 | 0.00 | 88 | 1019.1 |
| 20260901062905 | 64 | 144 | 1.0 | 9.0 | 0.00 | 0.00 | 0.00 | 88 | 1019.2 |
| 20260901062405 | 64 | 75 | 5.0 | 18.0 | 0.00 | 0.00 | 0.00 | 88 | 1019.1 |
| 20260901061905 | 64 | 128 | 3.0 | 14.0 | 0.00 | 0.00 | 0.00 | 88 | 1019.0 |
| 20260901061405 | 63 | 102 | 0.0 | 12.0 | 0.00 | 0.00 | 0.00 | 88 | 1019.0 |
| 20260901060904 | 63 | 144 | 3.0 | 10.0 | 0.00 | 0.00 | 0.00 | 88 | 1018.9 |
| 20260901060404 | 63 | 109 | 0.0 | 7.0 | 0.00 | 0.00 | 0.00 | 88 | 1018.9 |
| 20260901055905 | 63 | 138 | 1.0 | 9.0 | 0.00 | 0.00 | 0.00 | 88 | 1018.9 |
| 20260901055405 | 63 | 71 | 1.0 | 7.0 | 0.00 | 0.00 | 0.00 | 88 | 1018.8 |
| 20260901054904 | 63 | 128 | 1.0 | 9.0 | 0.00 | 0.00 | 0.00 | 88 | 1018.8 |
| 20260901054405 | 63 | 94 | 3.0 | 12.0 | 0.00 | 0.00 | 0.00 | 88 | 1018.8 |
| 20260901052905 | 63 | 123 | 0.0 | 6.0 | 0.00 | 0.00 | 0.00 | 89 | 1018.7 |
| 20260901052405 | 63 | 106 | 3.0 | 12.0 | 0.00 | 0.00 | 0.00 | 89 | 1018.7 |
| 20260901051905 | 63 | 60 | 1.0 | 12.0 | 0.00 | 0.00 | 0.00 | 89 | 1018.7 |
| 20260901051405 | 63 | 127 | 1.0 | 9.0 | 0.00 | 0.00 | 0.00 | 89 | 1018.6 |
| 20260901050904 | 63 | 129 | 4.0 | 14.0 | 0.00 | 0.00 | 0.00 | 89 | 1018.7 |
| 20260901050405 | 63 | 83 | 2.0 | 7.0 | 0.00 | 0.00 | 0.00 | 89 | 1018.7 |
| 20260901045905 | 63 | 166 | 2.0 | 12.0 | 0.00 | 0.00 | 0.00 | 89 | 1018.7 |
| 20260901045404 | 63 | 125 | 2.0 | 10.0 | 0.00 | 0.00 | 0.00 | 89 | 1018.7 |
| 20260901044905 | 63 | 151 | 2.0 | 10.0 | 0.00 | 0.00 | 0.00 | 89 | 1018.8 |
| 20260901044404 | 63 | 151 | 2.0 | 8.0 | 0.00 | 0.00 | 0.00 | 89 | 1018.7 |
| 20260901043904 | 63 | 112 | 2.0 | 6.0 | 0.00 | 0.00 | 0.00 | 89 | 1018.7 |
| 20260901043405 | 63 | 174 | 5.0 | 10.0 | 0.00 | 0.00 | 0.00 | 89 | 1018.6 |
| 20260901042904 | 63 | 161 | 2.0 | 12.0 | 0.00 | 0.00 | 0.00 | 89 | 1018.6 |
| 20260901042405 | 63 | 92 | 3.0 | 10.0 | 0.00 | 0.00 | 0.00 | 89 | 1018.5 |
| 20260901041404 | 63 | 111 | 0.0 | 8.0 | 0.00 | 0.00 | 0.00 | 89 | 1018.6 |
| 20260901040904 | 63 | 105 | 0.0 | 8.0 | 0.00 | 0.00 | 0.00 | 90 | 1018.5 |
| 20260901040405 | 63 | 107 | 1.0 | 8.0 | 0.00 | 0.00 | 0.00 | 90 | 1018.6 |
| 20260901035905 | 62 | 98 | 2.0 | 8.0 | 0.00 | 0.00 | 0.00 | 90 | 1018.5 |
| 20260901035404 | 62 | 122 | 1.0 | 7.0 | 0.00 | 0.00 | 0.00 | 90 | 1018.5 |
| 20260901034405 | 62 | 136 | 1.0 | 13.0 | 0.00 | 0.00 | 0.00 | 90 | 1018.7 |
| 20260901033904 | 62 | 148 | 2.0 | 9.0 | 0.00 | 0.00 | 0.00 | 90 | 1018.7 |
| 20260901033404 | 62 | 137 | 1.0 | 8.0 | 0.00 | 0.00 | 0.00 | 90 | 1018.7 |
| 20260901032905 | 62 | 138 | 2.0 | 12.0 | 0.00 | 0.00 | 0.00 | 90 | 1018.7 |
| 20260901031905 | 62 | 109 | 1.0 | 13.0 | 0.00 | 0.00 | 0.00 | 89 | 1018.7 |
| 20260901030905 | 62 | 112 | 0.0 | 5.0 | 0.00 | 0.00 | 0.00 | 89 | 1018.7 |
| 20260901030404 | 62 | 78 | 0.0 | 5.0 | 0.00 | 0.00 | 0.00 | 89 | 1018.7 |
| 20260901025904 | 62 | 129 | 5.0 | 12.0 | 0.00 | 0.00 | 0.00 | 89 | 1018.7 |
| 20260901024905 | 62 | 81 | 1.0 | 9.0 | 0.00 | 0.00 | 0.00 | 89 | 1018.8 |
| 20260901024404 | 62 | 124 | 0.0 | 2.0 | 0.00 | 0.00 | 0.00 | 89 | 1018.7 |
| 20260901023905 | 62 | 124 | 2.0 | 8.0 | 0.00 | 0.00 | 0.00 | 88 | 1018.8 |
| 20260901023405 | 62 | 115 | 0.0 | 0.0 | 0.00 | 0.00 | 0.00 | 88 | 1018.8 |
| 20260901022904 | 62 | 115 | 2.0 | 12.0 | 0.00 | 0.00 | 0.00 | 88 | 1018.8 |
| 20260901021904 | 62 | 128 | 1.0 | 6.0 | 0.00 | 0.00 | 0.00 | 88 | 1018.8 |
| 20260901021404 | 63 | 111 | 1.0 | 6.0 | 0.00 | 0.00 | 0.00 | 88 | 1018.8 |
| 20260901020905 | 63 | 115 | 0.0 | 5.0 | 0.00 | 0.00 | 0.00 | 88 | 1018.9 |
| 20260901020404 | 63 | 96 | 0.0 | 6.0 | 0.00 | 0.00 | 0.00 | 88 | 1018.9 |
| 20260901015404 | 63 | 113 | 1.0 | 8.0 | 0.00 | 0.00 | 0.00 | 87 | 1019.0 |
| 20260901014904 | 63 | 125 | 0.0 | 6.0 | 0.00 | 0.00 | 0.00 | 87 | 1019.1 |
| 20260901014405 | 63 | 127 | 0.0 | 5.0 | 0.00 | 0.00 | 0.00 | 87 | 1019.1 |
| 20260901013904 | 63 | 123 | 1.0 | 12.0 | 0.00 | 0.00 | 0.00 | 87 | 1019.2 |
| 20260901013404 | 63 | 122 | 2.0 | 12.0 | 0.00 | 0.00 | 0.00 | 87 | 1019.2 |
| 20260901012904 | 63 | 125 | 2.0 | 10.0 | 0.00 | 0.00 | 0.00 | 87 | 1019.2 |
| 20260901012404 | 63 | 174 | 1.0 | 6.0 | 0.00 | 0.00 | 0.00 | 87 | 1019.3 |
| 20260901011905 | 63 | 154 | 2.0 | 9.0 | 0.00 | 0.00 | 0.00 | 87 | 1019.4 |
| 20260901011404 | 63 | 122 | 1.0 | 6.0 | 0.00 | 0.00 | 0.00 | 86 | 1019.3 |
| 20260901010904 | 63 | 131 | 1.0 | 6.0 | 0.00 | 0.00 | 0.00 | 86 | 1019.4 |
| 20260901010405 | 63 | 117 | 1.0 | 6.0 | 0.00 | 0.00 | 0.00 | 86 | 1019.4 |
| 20260901005904 | 63 | 99 | 1.0 | 6.0 | 0.00 | 0.00 | 0.00 | 86 | 1019.4 |
| 20260901004404 | 63 | 140 | 1.0 | 9.0 | 0.00 | 0.00 | 0.00 | 86 | 1019.7 |
| 20260901003905 | 63 | 149 | 1.0 | 10.0 | 0.00 | 0.00 | 0.00 | 86 | 1019.6 |
| 20260901003405 | 63 | 117 | 1.0 | 9.0 | 0.00 | 0.00 | 0.00 | 86 | 1019.5 |
| 20260901002905 | 63 | 194 | 0.0 | 5.0 | 0.00 | 0.00 | 0.00 | 86 | 1019.6 |
| 20260901002404 | 63 | 142 | 1.0 | 15.0 | 0.00 | 0.00 | 0.00 | 86 | 1019.5 |
| 20260901001905 | 63 | 124 | 3.0 | 15.0 | 0.00 | 0.00 | 0.00 | 86 | 1019.5 |
| 20260901001405 | 63 | 84 | 6.0 | 12.0 | 0.00 | 0.00 | 0.00 | 85 | 1019.6 |
| 20260901000905 | 63 | 160 | 4.0 | 12.0 | 0.00 | 0.00 | 0.00 | 85 | 1019.6 |
| 20260831235904 | 63 | 115 | 2.0 | 12.0 | 0.00 | 0.00 | 0.00 | 85 | 1019.6 |
| 20260831235404 | 64 | 129 | 1.0 | 8.0 | 0.00 | 0.00 | 0.00 | 85 | 1019.7 |
| 20260831234405 | 64 | 162 | 1.0 | 8.0 | 0.00 | 0.00 | 0.00 | 84 | 1019.7 |
| 20260831233904 | 64 | 149 | 2.0 | 9.0 | 0.00 | 0.00 | 0.00 | 84 | 1019.7 |
| 20260831233405 | 64 | 128 | 2.0 | 12.0 | 0.00 | 0.00 | 0.00 | 84 | 1019.7 |
| 20260831232905 | 64 | 131 | 2.0 | 9.0 | 0.00 | 0.00 | 0.00 | 84 | 1019.8 |
| 20260831232405 | 64 | 95 | 0.0 | 8.0 | 0.00 | 0.00 | 0.00 | 84 | 1019.8 |